Weather in Baranovka

Russia / Lipetsk Oblast     52°40′27″N   38°12′24″E
temp.,
°C
wind,
m/s
gust,
m/s
humid.,
%
clouds,
%
prec.,
mm/h
press.,
hPa
HPBL,
m
25 june, sat
sat2500:00+15nne46855 0.0 101499
03:00+14ne468826 0.0 101593
06:00+15ne37862 0.0 1016193
09:00+20ne57705 0.0 1017531
12:00+23ne565998 0.0 10171295
15:00+24ne56576 0.0 10171734
18:00+23ne47687 0.0 1017835
21:00+18nne46840 0.1 101887
26 june, sun
sun2600:00+17ne33850 0.0 101942
03:00+16nne46880 0.0 102098
06:00+17ne36840 0.0 1021141
09:00+23ne46661 0.0 1021446
12:00+25ne57585 0.0 10211383
15:00+26ne575628 0.0 10212194
18:00+23nne377510 0.0 1021190
21:00+20ne33821 0.1 102235
27 june, mon
mon2700:00+19n22810 0.0 102219
03:00+18n33880 0.0 102229
06:00+19n22853 0.0 102382
09:00+24wnw22685 0.0 1022462
12:00+27nnw33611 0.0 10211088
15:00+29n34575 0.0 10201655
18:00+27n36712 0.4 1019409
21:00+22nw33834 0.6 101924
28 june, tue
tue2800:00+21nw478953 0.1 1019111
03:00+20n46900 0.1 1018111
06:00+20nne49840 0.0 1019194
09:00+23ne56710 0.0 1019507
12:00+25ne67654 0.0 10201145
15:00+24ne676345 0.1 10201374
18:00+21ne57640 0.0 1021975
21:00+16ne22759 0.0 102224
29 june, wed
wed2900:00+14ne34801 0.0 102352
03:00+12ne35794 0.0 102379
06:00+12ne368122 0.0 1024166
09:00+17ene56650 0.0 1024834
12:00+19ne55490 0.0 10241604
15:00+20ne56474 0.0 10241811
18:00+19ne35590 0.0 10241787
21:00+14ne33730 0.0 102434